Kelso, MO

12:48 AM CDT on August 26, 2016 (GMT -0500)
Cape Girardeau Regional

Weather History for KCGI - August, 2013

Change the Weather History Date:

Thursday, August 15, 2013

  Actual Average Record
Temperature  
Mean Temperature 64 °F 78 °F  
Max Temperature 77 °F 89 °F 104 °F (1988)
Min Temperature 51 °F 66 °F 49 °F (1988)
Degree Days  
Heating Degree Days 1 0  
Month to date heating degree days 1 0  
Since 1 June heating degree days 1 4  
Since 1 July heating degree days 1 0  
Cooling Degree Days 0 13  
Month to date cooling degree days 147 195  
Year to date cooling degree days 991 1081  
Since 1 June cooling degree days 820 929  
Growing Degree Days 14 (Base 50)    
Moisture  
Dew Point 54 °F    
Average Humidity 72    
Maximum Humidity 100    
Minimum Humidity 43    
Precipitation  
Precipitation 0.00 in 0.10 in 1.35 in (1966)
Month to date precipitation 3.53 1.42  
Year to date precipitation 28.23 29.45  
Sea Level Pressure  
Sea Level Pressure 30.10 in    
Wind  
Wind Speed 4 mph (NE)    
Max Wind Speed 13 mph    
Max Gust Speed 16 mph    
Visibility 10 miles    
Events      
T = Trace of Precipitation, MM = Missing Value Source: NWS Daily Summary

Daily Weather History Graph

Daily Weather History Graph

Search for Another Location

Airport or City:

Trip Planner

Search our weather history database for the weather conditions in past years. The results will help you decide how hot, cold, wet, or windy it might be!

Date:

Astronomy

Aug. 15, 2013 Rise Set
Actual Time 6:14 AM CDT 7:49 PM CDT
Civil Twilight 5:47 AM CDT 8:17 PM CDT
Nautical Twilight 5:13 AM CDT 8:50 PM CDT
Astronomical Twilight 4:38 AM CDT 9:25 PM CDT
Moon 3:04 PM CDT (8/15) 12:26 AM CDT (8/15)
Length of Visible Light 14h 30m
Length of Day
13h 34m
Waxing Gibbous, 64% of the Moon is Illuminated
Aug 15
Waxing Gibbous
Aug 20
Full
Aug 28
Last Quarter
Sep 5
New
Sep 12
First Quarter

Hourly Weather History & Observations

Time (CDT) Temp. Dew Point Humidity Pressure Visibility Wind Dir Wind Speed Gust Speed Precip Events Conditions
12:53 AM 55.9 °F 53.1 °F 90% 30.14 in 10.0 mi Calm Calm - N/A   Clear
1:53 AM 54.0 °F 53.1 °F 97% 30.12 in 10.0 mi Calm Calm - N/A   Clear
2:53 AM 53.1 °F 51.1 °F 93% 30.12 in 10.0 mi Calm Calm - N/A   Clear
3:53 AM 52.0 °F 51.1 °F 97% 30.11 in 10.0 mi Calm Calm - N/A   Clear
4:53 AM 52.0 °F 51.1 °F 97% 30.11 in 10.0 mi Calm Calm - N/A   Clear
5:53 AM 51.1 °F 50.0 °F 96% 30.11 in 10.0 mi Calm Calm - N/A   Clear
6:53 AM 53.1 °F 51.1 °F 93% 30.12 in 10.0 mi Calm Calm - N/A   Clear
7:53 AM 59.0 °F 55.9 °F 90% 30.13 in 10.0 mi Calm Calm - N/A   Clear
8:53 AM 64.9 °F 55.9 °F 73% 30.14 in 10.0 mi ENE 4.6 mph - N/A   Clear
9:53 AM 68.0 °F 55.9 °F 65% 30.14 in 10.0 mi Variable 4.6 mph - N/A   Clear
10:53 AM 72.0 °F 57.0 °F 59% 30.14 in 10.0 mi ENE 4.6 mph - N/A   Clear
11:53 AM 73.0 °F 55.0 °F 53% 30.12 in 10.0 mi NNE 10.4 mph - N/A   Scattered Clouds
12:53 PM 75.0 °F 54.0 °F 48% 30.10 in 10.0 mi NE 10.4 mph - N/A   Clear
1:53 PM 75.0 °F 54.0 °F 48% 30.09 in 10.0 mi Variable 6.9 mph - N/A   Clear
2:53 PM 75.9 °F 55.0 °F 48% 30.07 in 10.0 mi North 6.9 mph - N/A   Clear
3:53 PM 77.0 °F 54.0 °F 45% 30.06 in 10.0 mi NNE 6.9 mph - N/A   Partly Cloudy
4:53 PM 75.9 °F 55.0 °F 48% 30.06 in 10.0 mi ENE 5.8 mph - N/A   Clear
5:53 PM 75.0 °F 55.0 °F 50% 30.05 in 10.0 mi NNE 9.2 mph - N/A   Partly Cloudy
6:53 PM 72.0 °F 55.9 °F 57% 30.06 in 10.0 mi NNE 8.1 mph - N/A   Mostly Cloudy
7:53 PM 66.9 °F 57.9 °F 73% 30.06 in 10.0 mi NE 5.8 mph - N/A   Clear
8:53 PM 64.0 °F 57.0 °F 78% 30.07 in 10.0 mi NE 5.8 mph - N/A   Clear
9:53 PM 62.1 °F 55.9 °F 80% 30.09 in 10.0 mi Calm Calm - N/A   Scattered Clouds
10:53 PM 60.1 °F 57.0 °F 90% 30.09 in 10.0 mi Calm Calm - N/A   Scattered Clouds